,,,PA_Meas_PMT16A,,PR_Meas_QMR101_102,,RH_Meas_QMH101,,SR_Meas_QMS101,,TA_Meas_QMH101,,GenWind,,GenWind,
date,time,status,PA,status,PR,status,RH,status,SR,status,TA,status,DirAvg,status,SpdAvg,
2011-03-16, 00:00:04,VALID,1000.27,VALID,0.5,VALID,92.4405,VALID,0,VALID,23.311,VALID,75,VALID,0,
2011-03-16, 00:01:04,VALID,1000.31,VALID,0,VALID,92.4405,VALID,0,VALID,23.311,VALID,75,VALID,0,
2011-03-16, 00:02:04,VALID,1000.28,VALID,0,VALID,92.4481,VALID,0,VALID,23.311,VALID,75,VALID,0,
2011-03-16, 00:03:04,VALID,1000.28,VALID,0,VALID,92.4557,VALID,0,VALID,23.311,VALID,75,VALID,0,
2011-03-16, 00:04:04,VALID,1000.26,VALID,0,VALID,92.4557,VALID,0,VALID,23.311,VALID,75,VALID,0,
2011-03-16, 00:05:04,VALID,1000.25,VALID,0,VALID,92.4405,VALID,0,VALID,23.311,VALID,75,VALID,0,
2011-03-16, 00:06:04,VALID,1000.23,VALID,0,VALID,92.4634,VALID,0,VALID,23.2915,VALID,75,VALID,0,
2011-03-16, 00:07:04,VALID,1000.21,VALID,0,VALID,92.4481,VALID,0,VALID,23.311,VALID,75,VALID,0,
2011-03-16, 00:08:04,VALID,1000.23,VALID,0,VALID,92.4328,VALID,0,VALID,23.311,VALID,75,VALID,0,
2011-03-16, 00:09:04,VALID,1000.24,VALID,0,VALID,92.4252,VALID,0,VALID,23.3127,VALID,75,VALID,0,
2011-03-16, 00:10:04,VALID,1000.19,VALID,0,VALID,92.4328,VALID,0,VALID,23.311,VALID,75,VALID,0,
2011-03-16, 00:11:04,VALID,1000.21,VALID,0,VALID,92.4252,VALID,0,VALID,23.311,VALID,75,VALID,0,
2011-03-16, 00:12:04,VALID,1000.2,VALID,0,VALID,92.4328,VALID,0,VALID,23.2915,VALID,75,VALID,0,
2011-03-16, 00:13:04,VALID,1000.16,VALID,0,VALID,92.4481,VALID,0,VALID,23.2915,VALID,75,VALID,0,
2011-03-16, 00:14:04,VALID,1000.19,VALID,0,VALID,92.4405,VALID,0,VALID,23.2915,VALID,75,VALID,0.389062,
2011-03-16, 00:15:04,VALID,1000.18,VALID,0,VALID,92.4557,VALID,0,VALID,23.2915,VALID,75,VALID,0.642969,
2011-03-16, 00:16:04,VALID,1000.18,VALID,0,VALID,92.4634,VALID,0,VALID,23.2915,VALID,75,VALID,0.571484,
2011-03-16, 00:17:04,VALID,1000.2,VALID,0,VALID,92.4557,VALID,0.112286,VALID,23.2915,VALID,75,VALID,0.60625,
2011-03-16, 00:18:04,VALID,1000.2,VALID,0,VALID,92.4405,VALID,0,VALID,23.2702,VALID,75,VALID,0.668359,
2011-03-16, 00:19:04,VALID,1000.18,VALID,0,VALID,92.4405,VALID,0,VALID,23.2915,VALID,75,VALID,0.523047,
2011-03-16, 00:20:04,VALID,1000.2,VALID,0,VALID,92.4405,VALID,0,VALID,23.2915,VALID,74,VALID,0.760156,
2011-03-16, 00:21:04,VALID,1000.18,VALID,0,VALID,92.4405,VALID,0,VALID,23.2719,VALID,74,VALID,0.684375,
2011-03-16, 00:22:04,VALID,1000.18,VALID,0,VALID,92.4252,VALID,0,VALID,23.2507,VALID,78,VALID,0.8,
2011-03-16, 00:23:04,VALID,1000.17,VALID,0,VALID,92.41,VALID,0,VALID,23.2915,VALID,78,VALID,0.710156,
2011-03-16, 00:24:04,VALID,1000.17,VALID,0,VALID,92.4252,VALID,0,VALID,23.2915,VALID,78,VALID,0.762109,
2011-03-16, 00:25:04,VALID,1000.16,VALID,0,VALID,92.41,VALID,0,VALID,23.2719,VALID,78,VALID,0.631641,
2011-03-16, 00:26:04,VALID,1000.15,VALID,0,VALID,92.4023,VALID,0,VALID,23.2915,VALID,78,VALID,0.558594,
2011-03-16, 00:27:04,VALID,1000.15,VALID,0,VALID,92.4023,VALID,0,VALID,23.2915,VALID,78,VALID,0.558594,
2011-03-16, 00:28:04,VALID,1000.16,VALID,0,VALID,92.3794,VALID,0,VALID,23.2702,VALID,78,VALID,0.591016,
2011-03-16, 00:29:04,VALID,1000.18,VALID,0,VALID,92.3947,VALID,0,VALID,23.2719,VALID,78,VALID,0.636328,
2011-03-16, 00:30:04,VALID,1000.12,VALID,0,VALID,92.3566,VALID,0,VALID,23.2915,VALID,78,VALID,0.548828,
2011-03-16, 00:31:04,VALID,1000.12,VALID,0.5,VALID,92.3642,VALID,0,VALID,23.2719,VALID,78,VALID,0.400391,
2011-03-16, 00:32:04,VALID,1000.12,VALID,0,VALID,92.3489,VALID,0,VALID,23.2507,VALID,69,VALID,0.685156,
2011-03-16, 00:33:04,VALID,1000.11,VALID,0,VALID,92.3489,VALID,0,VALID,23.2719,VALID,49,VALID,0.349219,
2011-03-16, 00:34:04,VALID,1000.13,VALID,0,VALID,92.326,VALID,0,VALID,23.2719,VALID,49,VALID,0.455078,
2011-03-16, 00:35:04,VALID,1000.09,VALID,0,VALID,92.326,VALID,0,VALID,23.2719,VALID,49,VALID,0.296875,
2011-03-16, 00:36:04,VALID,1000.08,VALID,0,VALID,92.3108,VALID,0,VALID,23.2719,VALID,49,VALID,0.415625,
2011-03-16, 00:37:04,VALID,1000.07,VALID,0,VALID,92.3184,VALID,0,VALID,23.2719,VALID,49,VALID,0.428906,
2011-03-16, 00:38:04,VALID,1000.04,VALID,0,VALID,92.3108,VALID,0,VALID,23.2507,VALID,47,VALID,0.503125,
2011-03-16, 00:39:04,VALID,1000.06,VALID,0,VALID,92.3337,VALID,0,VALID,23.2719,VALID,47,VALID,0.411719,
2011-03-16, 00:40:04,VALID,1000.05,VALID,0,VALID,92.3184,VALID,0,VALID,23.2719,VALID,47,VALID,0.698438,
2011-03-16, 00:41:04,VALID,1000.04,VALID,0,VALID,92.326,VALID,0,VALID,23.2524,VALID,47,VALID,0.637109,
2011-03-16, 00:42:04,VALID,999.995,VALID,0,VALID,92.3413,VALID,0,VALID,23.2524,VALID,47,VALID,0.519141,
2011-03-16, 00:43:05,VALID,1000.03,VALID,0,VALID,92.3489,VALID,0,VALID,23.2719,VALID,47,VALID,0.372656,
2011-03-16, 00:44:05,VALID,999.995,VALID,0,VALID,92.3413,VALID,0,VALID,23.2719,VALID,47,VALID,0.254297,
2011-03-16, 00:45:05,VALID,1000.01,VALID,0,VALID,92.3642,VALID,0,VALID,23.2932,VALID,47,VALID,0.239453,
2011-03-16, 00:46:05,VALID,999.985,VALID,0,VALID,92.3794,VALID,0,VALID,23.2915,VALID,47,VALID,0.504297,
2011-03-16, 00:47:05,VALID,999.966,VALID,0,VALID,92.3718,VALID,0,VALID,23.2719,VALID,47,VALID,0.467578,
2011-03-16, 00:48:05,VALID,999.975,VALID,0,VALID,92.4023,VALID,0,VALID,23.2719,VALID,47,VALID,0.562109,
2011-03-16, 00:49:05,VALID,999.981,VALID,0,VALID,92.3947,VALID,0,VALID,23.2719,VALID,47,VALID,0.43125,
2011-03-16, 00:50:05,VALID,999.958,VALID,0,VALID,92.4023,VALID,0,VALID,23.2719,VALID,47,VALID,0.469531,
2011-03-16, 00:51:05,VALID,999.954,VALID,0,VALID,92.41,VALID,0,VALID,23.2524,VALID,49,VALID,0.584766,
2011-03-16, 00:52:05,VALID,999.954,VALID,0,VALID,92.3947,VALID,0,VALID,23.2719,VALID,49,VALID,0.53125,
2011-03-16, 00:53:05,VALID,999.965,VALID,0.5,VALID,92.41,VALID,0,VALID,23.2719,VALID,52,VALID,0.66875,
2011-03-16, 00:54:05,VALID,999.998,VALID,0,VALID,92.3794,VALID,0,VALID,23.2524,VALID,67,VALID,0.619141,
2011-03-16, 00:55:05,VALID,999.963,VALID,0,VALID,92.3566,VALID,0,VALID,23.2719,VALID,67,VALID,0.735156,
2011-03-16, 00:56:05,VALID,999.953,VALID,0,VALID,92.3337,VALID,0,VALID,23.2524,VALID,67,VALID,0.774219,
2011-03-16, 00:57:05,VALID,999.948,VALID,0,VALID,92.326,VALID,0.112286,VALID,23.2719,VALID,67,VALID,0.764063,
2011-03-16, 00:58:05,VALID,999.955,VALID,0,VALID,92.3108,VALID,0,VALID,23.2524,VALID,67,VALID,0.620703,
2011-03-16, 00:59:05,VALID,999.942,VALID,0,VALID,92.3108,VALID,0,VALID,23.2524,VALID,84,VALID,0.519922,
2011-03-16, 01:00:05,VALID,999.94,VALID,0,VALID,92.2879,VALID,0,VALID,23.2524,VALID,84,VALID,0.782812,
2011-03-16, 01:01:05,VALID,999.927,VALID,0,VALID,92.265,VALID,0,VALID,23.2719,VALID,85,VALID,0.7625,
2011-03-16, 01:02:05,VALID,999.931,VALID,0,VALID,92.2879,VALID,0,VALID,23.2524,VALID,85,VALID,0.773438,
2011-03-16, 01:03:05,VALID,999.904,VALID,0,VALID,92.2879,VALID,0,VALID,23.2719,VALID,85,VALID,0.802734,
2011-03-16, 01:04:05,VALID,999.924,VALID,0,VALID,92.2726,VALID,0,VALID,23.2524,VALID,97,VALID,0.855469,
2011-03-16, 01:05:05,VALID,999.916,VALID,0,VALID,92.265,VALID,0.112286,VALID,23.2719,VALID,97,VALID,0.807031,
2011-03-16, 01:06:05,VALID,999.919,VALID,0,VALID,92.2726,VALID,0,VALID,23.2719,VALID,97,VALID,0.794141,
2011-03-16, 01:07:05,VALID,999.912,VALID,0,VALID,92.2574,VALID,0,VALID,23.2719,VALID,97,VALID,0.734375,
2011-03-16, 01:08:05,VALID,999.906,VALID,0,VALID,92.2574,VALID,0,VALID,23.2719,VALID,97,VALID,0.515625,
2011-03-16, 01:09:05,VALID,999.905,VALID,0,VALID,92.2345,VALID,0,VALID,23.2524,VALID,97,VALID,0.859766,
2011-03-16, 01:10:05,VALID,999.887,VALID,0,VALID,92.2574,VALID,0,VALID,23.2524,VALID,97,VALID,0.932031,
2011-03-16, 01:11:05,VALID,999.891,VALID,0,VALID,92.2421,VALID,0,VALID,23.2719,VALID,97,VALID,0.732031,
2011-03-16, 01:12:05,VALID,999.907,VALID,0,VALID,92.2345,VALID,0,VALID,23.2719,VALID,97,VALID,0.667578,
2011-03-16, 01:13:05,VALID,999.883,VALID,0.5,VALID,92.2268,VALID,0,VALID,23.2719,VALID,97,VALID,0.748438,
2011-03-16, 01:14:05,VALID,999.851,VALID,0,VALID,92.2421,VALID,0,VALID,23.2719,VALID,97,VALID,0.651563,
2011-03-16, 01:15:05,VALID,999.847,VALID,0,VALID,92.2497,VALID,0,VALID,23.2719,VALID,97,VALID,0.645312,
2011-03-16, 01:16:05,VALID,999.862,VALID,0,VALID,92.2803,VALID,0.112286,VALID,23.2915,VALID,97,VALID,0.428906,
2011-03-16, 01:17:05,VALID,999.869,VALID,0,VALID,92.2803,VALID,0,VALID,23.2719,VALID,97,VALID,0.514063,
2011-03-16, 01:18:05,VALID,999.834,VALID,0,VALID,92.326,VALID,0,VALID,23.2719,VALID,97,VALID,0.217578,
2011-03-16, 01:19:05,VALID,999.833,VALID,0,VALID,92.3337,VALID,0,VALID,23.2719,VALID,97,VALID,0.226563,
2011-03-16, 01:20:05,VALID,999.845,VALID,0,VALID,92.3489,VALID,0,VALID,23.2719,VALID,97,VALID,0.214844,
2011-03-16, 01:21:05,VALID,999.838,VALID,0,VALID,92.3871,VALID,0,VALID,23.2915,VALID,97,VALID,0.330078,
2011-03-16, 01:22:05,VALID,999.829,VALID,0,VALID,92.41,VALID,0,VALID,23.2719,VALID,97,VALID,0.448828,
2011-03-16, 01:23:05,VALID,999.827,VALID,0,VALID,92.4252,VALID,0,VALID,23.2719,VALID,97,VALID,0.367188,
2011-03-16, 01:24:05,VALID,999.808,VALID,0,VALID,92.4405,VALID,0,VALID,23.2719,VALID,97,VALID,0,
2011-03-16, 01:25:05,VALID,999.815,VALID,0,VALID,92.4786,VALID,0,VALID,23.2719,VALID,97,VALID,0.198437,
2011-03-16, 01:26:05,VALID,999.792,VALID,0,VALID,92.471,VALID,0,VALID,23.2524,VALID,98,VALID,0.480469,
2011-03-16, 01:27:05,VALID,999.802,VALID,0,VALID,92.4939,VALID,0,VALID,23.2524,VALID,97,VALID,0.203906,
2011-03-16, 01:28:05,VALID,999.817,VALID,0,VALID,92.5091,VALID,0,VALID,23.2524,VALID,97,VALID,0.584766,
2011-03-16, 01:29:05,VALID,999.783,VALID,0,VALID,92.5397,VALID,0,VALID,23.2329,VALID,98,VALID,0.482812,
2011-03-16, 01:30:05,VALID,999.791,VALID,0,VALID,92.5549,VALID,0,VALID,23.2329,VALID,112,VALID,0.321094,
2011-03-16, 01:31:05,VALID,999.766,VALID,0,VALID,92.5549,VALID,0,VALID,23.2329,VALID,112,VALID,0.696875,
2011-03-16, 01:32:05,VALID,999.774,VALID,0,VALID,92.5549,VALID,0,VALID,23.2329,VALID,112,VALID,0.647656,
2011-03-16, 01:33:05,VALID,999.748,VALID,0,VALID,92.5626,VALID,0,VALID,23.2524,VALID,112,VALID,0.356641,
2011-03-16, 01:34:05,VALID,999.777,VALID,0,VALID,92.5702,VALID,0,VALID,23.2329,VALID,112,VALID,0.382422,
2011-03-16, 01:35:05,VALID,999.737,VALID,0,VALID,92.5626,VALID,0,VALID,23.2524,VALID,112,VALID,0.499219,
2011-03-16, 01:36:05,VALID,999.701,VALID,0.5,VALID,92.5702,VALID,0,VALID,23.2524,VALID,112,VALID,0.167187,
2011-03-16, 01:37:05,VALID,999.687,VALID,0,VALID,92.5854,VALID,0,VALID,23.2329,VALID,112,VALID,0.148828,
2011-03-16, 01:38:05,VALID,999.702,VALID,0,VALID,92.5549,VALID,0,VALID,23.2329,VALID,112,VALID,0.41875,
2011-03-16, 01:39:05,VALID,999.677,VALID,0,VALID,92.5854,VALID,0,VALID,23.2524,VALID,112,VALID,0.187891,
2011-03-16, 01:40:05,VALID,999.69,VALID,0,VALID,92.5778,VALID,0,VALID,23.2329,VALID,112,VALID,0,
2011-03-16, 01:41:05,VALID,999.671,VALID,0,VALID,92.5931,VALID,0,VALID,23.2329,VALID,112,VALID,0,
2011-03-16, 01:42:05,VALID,999.647,VALID,0,VALID,92.5931,VALID,0,VALID,23.2329,VALID,112,VALID,0,
2011-03-16, 01:43:05,VALID,999.663,VALID,0,VALID,92.6083,VALID,0,VALID,23.2524,VALID,112,VALID,0,
2011-03-16, 01:44:05,VALID,999.628,VALID,0,VALID,92.6007,VALID,0,VALID,23.2329,VALID,112,VALID,0,
2011-03-16, 01:45:05,VALID,999.621,VALID,0,VALID,92.6083,VALID,0,VALID,23.2329,VALID,112,VALID,0,
2011-03-16, 01:46:05,VALID,999.599,VALID,0,VALID,92.6083,VALID,0,VALID,23.2329,VALID,112,VALID,0,
2011-03-16, 01:47:05,VALID,999.579,VALID,0,VALID,92.6465,VALID,0,VALID,23.2329,VALID,112,VALID,0,
2011-03-16, 01:48:05,VALID,999.574,VALID,0,VALID,92.6465,VALID,0,VALID,23.2134,VALID,112,VALID,0,
2011-03-16, 01:49:05,VALID,999.539,VALID,0,VALID,92.6312,VALID,0,VALID,23.2329,VALID,112,VALID,0,
2011-03-16, 01:50:05,VALID,999.487,VALID,0,VALID,92.6617,VALID,0,VALID,23.1939,VALID,112,VALID,0,
2011-03-16, 01:51:05,VALID,999.471,VALID,0,VALID,92.6388,VALID,0,VALID,23.2134,VALID,112,VALID,0,
2011-03-16, 01:52:05,VALID,999.428,VALID,0,VALID,92.6465,VALID,0,VALID,23.1939,VALID,112,VALID,0,
2011-03-16, 01:53:05,VALID,999.403,VALID,0,VALID,92.6617,VALID,0,VALID,23.1939,VALID,112,VALID,0,
2011-03-16, 01:54:05,VALID,999.387,VALID,0,VALID,92.6541,VALID,0,VALID,23.1744,VALID,112,VALID,0,
2011-03-16, 01:55:05,VALID,999.372,VALID,0,VALID,92.6694,VALID,0,VALID,23.1744,VALID,112,VALID,0,
2011-03-16, 01:56:05,VALID,999.352,VALID,0,VALID,92.6617,VALID,0,VALID,23.1744,VALID,112,VALID,0,
2011-03-16, 01:57:05,VALID,999.344,VALID,0,VALID,92.6617,VALID,0,VALID,23.1762,VALID,112,VALID,0,
2011-03-16, 01:58:05,VALID,999.312,VALID,0,VALID,92.6465,VALID,0,VALID,23.1549,VALID,112,VALID,0,
2011-03-16, 01:59:05,VALID,999.307,VALID,0,VALID,92.677,VALID,0,VALID,23.1549,VALID,112,VALID,0,
2011-03-16, 02:00:05,VALID,999.288,VALID,0,VALID,92.6923,VALID,0,VALID,23.1549,VALID,112,VALID,0,
2011-03-16, 02:01:05,VALID,999.284,VALID,0,VALID,92.6846,VALID,0,VALID,23.1354,VALID,112,VALID,0,
2011-03-16, 02:02:05,VALID,999.208,VALID,0,VALID,92.6923,VALID,0,VALID,23.1354,VALID,112,VALID,0,
2011-03-16, 02:03:05,VALID,999.242,VALID,0,VALID,92.6923,VALID,0,VALID,23.1354,VALID,112,VALID,0,
2011-03-16, 02:04:05,VALID,999.165,VALID,0.5,VALID,92.7075,VALID,0,VALID,23.1354,VALID,112,VALID,0,
2011-03-16, 02:05:05,VALID,999.175,VALID,0,VALID,92.7151,VALID,0,VALID,23.1354,VALID,112,VALID,0,
2011-03-16, 02:06:05,VALID,999.129,VALID,0,VALID,92.7151,VALID,0,VALID,23.1159,VALID,112,VALID,0,
2011-03-16, 02:07:05,VALID,999.118,VALID,0,VALID,92.7304,VALID,0,VALID,23.1159,VALID,112,VALID,0,
2011-03-16, 02:08:05,VALID,999.131,VALID,0,VALID,92.7151,VALID,0,VALID,23.0946,VALID,96,VALID,0.664063,
2011-03-16, 02:09:05,VALID,999.109,VALID,0,VALID,92.6999,VALID,0,VALID,23.1159,VALID,97,VALID,0.680859,
2011-03-16, 02:10:05,VALID,999.08,VALID,0,VALID,92.7075,VALID,0,VALID,23.1336,VALID,97,VALID,0.471094,
2011-03-16, 02:11:05,VALID,999.056,VALID,0,VALID,92.6694,VALID,0,VALID,23.1549,VALID,97,VALID,0.641406,
2011-03-16, 02:12:05,VALID,999.044,VALID,0,VALID,92.6846,VALID,0,VALID,23.1549,VALID,97,VALID,0.762891,
2011-03-16, 02:13:05,VALID,999.065,VALID,0,VALID,92.6617,VALID,0,VALID,23.1549,VALID,97,VALID,0.795313,
2011-03-16, 02:14:05,VALID,999.022,VALID,0,VALID,92.6617,VALID,0,VALID,23.1336,VALID,97,VALID,0.733594,
2011-03-16, 02:15:05,VALID,999.001,VALID,0,VALID,92.6236,VALID,0,VALID,23.1549,VALID,97,VALID,0.732031,
2011-03-16, 02:16:05,VALID,998.961,VALID,0,VALID,92.6236,VALID,0,VALID,23.1549,VALID,97,VALID,0.528516,
2011-03-16, 02:17:05,VALID,998.936,VALID,0,VALID,92.6083,VALID,0,VALID,23.1762,VALID,97,VALID,0.380078,
2011-03-16, 02:18:05,VALID,998.947,VALID,0,VALID,92.5931,VALID,0,VALID,23.1744,VALID,97,VALID,0.652344,
2011-03-16, 02:19:05,VALID,998.921,VALID,0,VALID,92.5854,VALID,0,VALID,23.1549,VALID,95,VALID,0.648438,
2011-03-16, 02:20:05,VALID,998.939,VALID,0,VALID,92.5854,VALID,0,VALID,23.1549,VALID,95,VALID,0.280078,
2011-03-16, 02:21:05,VALID,998.889,VALID,0,VALID,92.5473,VALID,0,VALID,23.1549,VALID,95,VALID,0.458984,
2011-03-16, 02:22:05,VALID,998.889,VALID,0,VALID,92.5473,VALID,0,VALID,23.1549,VALID,95,VALID,0.392188,
2011-03-16, 02:23:05,VALID,998.851,VALID,0,VALID,92.5702,VALID,0,VALID,23.1549,VALID,95,VALID,0.395312,
2011-03-16, 02:24:05,VALID,998.873,VALID,0,VALID,92.5397,VALID,0,VALID,23.1549,VALID,95,VALID,0.53125,
2011-03-16, 02:25:05,VALID,998.878,VALID,0,VALID,92.5015,VALID,0,VALID,23.1549,VALID,95,VALID,0.544531,
2011-03-16, 02:26:05,VALID,998.856,VALID,0,VALID,92.5168,VALID,0,VALID,23.1549,VALID,103,VALID,0.576172,
2011-03-16, 02:27:05,VALID,998.852,VALID,0,VALID,92.5168,VALID,0,VALID,23.1354,VALID,102,VALID,0.830469,
2011-03-16, 02:28:05,VALID,998.819,VALID,0,VALID,92.5091,VALID,0,VALID,23.1549,VALID,102,VALID,0.729297,
2011-03-16, 02:29:05,VALID,998.797,VALID,0,VALID,92.4939,VALID,0,VALID,23.1354,VALID,102,VALID,0.651563,
2011-03-16, 02:30:05,VALID,998.784,VALID,0,VALID,92.4863,VALID,0,VALID,23.1549,VALID,102,VALID,0.451172,
2011-03-16, 02:31:05,VALID,998.746,VALID,0,VALID,92.4786,VALID,0,VALID,23.1549,VALID,102,VALID,0.478906,
2011-03-16, 02:32:05,VALID,998.752,VALID,0,VALID,92.5015,VALID,0,VALID,23.1549,VALID,101,VALID,0.735156,
2011-03-16, 02:33:05,VALID,998.728,VALID,0,VALID,92.4634,VALID,0,VALID,23.1549,VALID,109,VALID,0.768359,
2011-03-16, 02:34:05,VALID,998.726,VALID,0,VALID,92.4939,VALID,0,VALID,23.1549,VALID,109,VALID,0.523438,
2011-03-16, 02:35:05,VALID,998.695,VALID,0,VALID,92.4557,VALID,0,VALID,23.1354,VALID,126,VALID,0.594531,
2011-03-16, 02:36:05,VALID,998.694,VALID,0,VALID,92.4252,VALID,0,VALID,23.1354,VALID,120,VALID,0.505859,
2011-03-16, 02:37:05,VALID,998.704,VALID,0,VALID,92.3718,VALID,0,VALID,23.1566,VALID,102,VALID,0.868359,
2011-03-16, 02:38:05,VALID,998.672,VALID,0,VALID,92.3642,VALID,0,VALID,23.1354,VALID,112,VALID,0.694922,
2011-03-16, 02:39:05,VALID,998.638,VALID,0,VALID,92.3184,VALID,0,VALID,23.1354,VALID,105,VALID,0.736719,
2011-03-16, 02:40:05,VALID,998.648,VALID,0,VALID,92.3031,VALID,0,VALID,23.1354,VALID,118,VALID,0.998047,
2011-03-16, 02:41:05,VALID,998.639,VALID,0,VALID,92.2421,VALID,0,VALID,23.1159,VALID,109,VALID,1.06133,
2011-03-16, 02:42:05,VALID,998.634,VALID,0,VALID,92.1582,VALID,0,VALID,23.1354,VALID,117,VALID,0.580859,
2011-03-16, 02:43:05,VALID,998.601,VALID,0,VALID,92.1582,VALID,0,VALID,23.1354,VALID,114,VALID,0.710938,
2011-03-16, 02:44:05,VALID,998.593,VALID,0,VALID,92.1048,VALID,0,VALID,23.1354,VALID,115,VALID,0.873047,
2011-03-16, 02:45:05,VALID,998.563,VALID,0,VALID,92.059,VALID,0,VALID,23.1159,VALID,110,VALID,0.709375,
2011-03-16, 02:46:05,VALID,998.552,VALID,0,VALID,91.998,VALID,0,VALID,23.1159,VALID,103,VALID,0.466406,
2011-03-16, 02:47:05,VALID,998.514,VALID,0,VALID,91.9598,VALID,0,VALID,23.1159,VALID,103,VALID,0.253516,
2011-03-16, 02:48:05,VALID,998.514,VALID,0,VALID,91.9217,VALID,0,VALID,23.0751,VALID,94,VALID,0.375,
2011-03-16, 02:49:05,VALID,998.481,VALID,0,VALID,91.8683,VALID,0,VALID,23.0964,VALID,94,VALID,0.427734,
2011-03-16, 02:50:05,VALID,998.456,VALID,0,VALID,91.7996,VALID,0,VALID,23.0769,VALID,76,VALID,0.577344,
2011-03-16, 02:51:05,VALID,998.455,VALID,0,VALID,91.792,VALID,0,VALID,23.0769,VALID,76,VALID,0.473047,
2011-03-16, 02:52:05,VALID,998.442,VALID,0,VALID,91.7843,VALID,0,VALID,23.0769,VALID,76,VALID,0.29375,
2011-03-16, 02:53:05,VALID,998.451,VALID,0,VALID,91.792,VALID,0,VALID,23.0769,VALID,76,VALID,0.298047,
2011-03-16, 02:54:05,VALID,998.423,VALID,0,VALID,91.792,VALID,0.112286,VALID,23.0769,VALID,76,VALID,0.167187,
2011-03-16, 02:55:05,VALID,998.411,VALID,0,VALID,91.8301,VALID,0,VALID,23.0573,VALID,76,VALID,0.253906,
2011-03-16, 02:56:05,VALID,998.39,VALID,0,VALID,91.8377,VALID,0,VALID,23.0378,VALID,76,VALID,0.146484,
2011-03-16, 02:57:05,VALID,998.373,VALID,0,VALID,91.8835,VALID,0,VALID,23.0166,VALID,76,VALID,0.214844,
2011-03-16, 02:58:05,VALID,998.369,VALID,0,VALID,91.9217,VALID,0,VALID,23.0378,VALID,76,VALID,0.121094,
2011-03-16, 02:59:05,VALID,998.349,VALID,0,VALID,91.9598,VALID,0,VALID,23.0183,VALID,76,VALID,0.188672,
2011-03-16, 03:00:05,VALID,998.355,VALID,0,VALID,91.9827,VALID,0,VALID,23.0183,VALID,76,VALID,0.129297,
2011-03-16, 03:01:05,VALID,998.322,VALID,0,VALID,92.0285,VALID,0,VALID,22.9988,VALID,76,VALID,0.213672,
2011-03-16, 03:02:05,VALID,998.323,VALID,0,VALID,92.0437,VALID,0,VALID,22.9793,VALID,76,VALID,0.176953,
2011-03-16, 03:03:05,VALID,998.348,VALID,0,VALID,92.0743,VALID,0,VALID,22.9793,VALID,76,VALID,0.155078,
2011-03-16, 03:04:05,VALID,998.333,VALID,0,VALID,92.0743,VALID,0,VALID,22.9598,VALID,76,VALID,0,
2011-03-16, 03:05:05,VALID,998.307,VALID,0,VALID,92.0895,VALID,0,VALID,22.9598,VALID,76,VALID,0,
2011-03-16, 03:06:05,VALID,998.287,VALID,0,VALID,92.1124,VALID,0,VALID,22.9598,VALID,76,VALID,0,
2011-03-16, 03:07:05,VALID,998.295,VALID,0,VALID,92.12,VALID,0,VALID,22.9598,VALID,76,VALID,0,
2011-03-16, 03:08:05,VALID,998.26,VALID,0,VALID,92.1582,VALID,0,VALID,22.9598,VALID,76,VALID,0,
2011-03-16, 03:09:05,VALID,998.302,VALID,0,VALID,92.1811,VALID,0,VALID,22.9403,VALID,76,VALID,0,
2011-03-16, 03:10:05,VALID,998.273,VALID,0,VALID,92.2116,VALID,0,VALID,22.9598,VALID,76,VALID,0,
2011-03-16, 03:11:05,VALID,998.242,VALID,0,VALID,92.2116,VALID,0,VALID,22.9403,VALID,76,VALID,0,
2011-03-16, 03:12:05,VALID,998.255,VALID,0,VALID,92.2497,VALID,0,VALID,22.9403,VALID,76,VALID,0,
2011-03-16, 03:13:05,VALID,998.283,VALID,0,VALID,92.2726,VALID,0,VALID,22.9403,VALID,76,VALID,0,
2011-03-16, 03:14:05,VALID,998.231,VALID,0,VALID,92.2803,VALID,0,VALID,22.9403,VALID,76,VALID,0,
2011-03-16, 03:15:05,VALID,998.273,VALID,0,VALID,92.2803,VALID,0,VALID,22.9598,VALID,76,VALID,0.0375,
2011-03-16, 03:16:05,VALID,998.29,VALID,0,VALID,92.3108,VALID,0,VALID,22.9403,VALID,76,VALID,0.325781,
2011-03-16, 03:17:05,VALID,998.28,VALID,0,VALID,92.2955,VALID,0,VALID,22.9598,VALID,76,VALID,0.295312,
2011-03-16, 03:18:05,VALID,998.258,VALID,0,VALID,92.326,VALID,0,VALID,22.9598,VALID,76,VALID,0.321484,
2011-03-16, 03:19:05,VALID,998.268,VALID,0,VALID,92.3413,VALID,0,VALID,22.9598,VALID,76,VALID,0.171875,
2011-03-16, 03:20:05,VALID,998.284,VALID,0,VALID,92.3489,VALID,0,VALID,22.9598,VALID,76,VALID,0.0546875,
2011-03-16, 03:21:05,VALID,998.292,VALID,0,VALID,92.3337,VALID,0,VALID,22.9598,VALID,76,VALID,0.0359375,
2011-03-16, 03:22:05,VALID,998.291,VALID,0,VALID,92.3566,VALID,0,VALID,22.9403,VALID,76,VALID,0.232422,
2011-03-16, 03:23:05,VALID,998.322,VALID,0,VALID,92.3413,VALID,0,VALID,22.919,VALID,76,VALID,0.113281,
2011-03-16, 03:24:05,VALID,998.316,VALID,0,VALID,92.3184,VALID,0,VALID,22.942,VALID,79,VALID,0.458594,
2011-03-16, 03:25:05,VALID,998.322,VALID,0,VALID,92.3184,VALID,0,VALID,22.9403,VALID,79,VALID,0.191016,
2011-03-16, 03:26:05,VALID,998.361,VALID,0,VALID,92.3489,VALID,0,VALID,22.9403,VALID,79,VALID,0.127734,
2011-03-16, 03:27:05,VALID,998.37,VALID,0,VALID,92.3337,VALID,0,VALID,22.9598,VALID,80,VALID,0.478516,
2011-03-16, 03:28:05,VALID,998.385,VALID,0,VALID,92.326,VALID,0,VALID,22.9403,VALID,80,VALID,0.326953,
2011-03-16, 03:29:05,VALID,998.378,VALID,0,VALID,92.3337,VALID,0,VALID,22.9403,VALID,80,VALID,0.344922,
2011-03-16, 03:30:05,VALID,998.397,VALID,0,VALID,92.3337,VALID,0,VALID,22.9403,VALID,134,VALID,0.390625,
2011-03-16, 03:31:04,VALID,998.371,VALID,0,VALID,92.3337,VALID,0,VALID,22.9403,VALID,134,VALID,0.192188,
2011-03-16, 03:32:04,VALID,998.398,VALID,0,VALID,92.3337,VALID,0,VALID,22.9403,VALID,134,VALID,0,
2011-03-16, 03:33:04,VALID,998.377,VALID,0,VALID,92.3184,VALID,0,VALID,22.9403,VALID,134,VALID,0,
2011-03-16, 03:34:04,VALID,998.422,VALID,0,VALID,92.3184,VALID,0,VALID,22.9208,VALID,134,VALID,0,
2011-03-16, 03:35:04,VALID,998.419,VALID,0,VALID,92.2955,VALID,0,VALID,22.9013,VALID,134,VALID,0,
2011-03-16, 03:36:04,VALID,998.415,VALID,0,VALID,92.3031,VALID,0,VALID,22.8818,VALID,134,VALID,0,
2011-03-16, 03:37:04,VALID,998.411,VALID,0,VALID,92.2879,VALID,0,VALID,22.8605,VALID,134,VALID,0,
2011-03-16, 03:38:04,VALID,998.387,VALID,0,VALID,92.2879,VALID,0,VALID,22.8427,VALID,134,VALID,0,
2011-03-16, 03:39:04,VALID,998.429,VALID,0,VALID,92.265,VALID,0,VALID,22.8623,VALID,134,VALID,0,
2011-03-16, 03:40:04,VALID,998.436,VALID,0,VALID,92.3031,VALID,0,VALID,22.8818,VALID,134,VALID,0,
2011-03-16, 03:41:04,VALID,998.431,VALID,0,VALID,92.3108,VALID,0,VALID,22.8605,VALID,134,VALID,0.236719,
2011-03-16, 03:42:04,VALID,998.459,VALID,0,VALID,92.3337,VALID,0,VALID,22.8818,VALID,134,VALID,0.248828,
2011-03-16, 03:43:04,VALID,998.453,VALID,0,VALID,92.326,VALID,0,VALID,22.8818,VALID,134,VALID,0.538281,
2011-03-16, 03:44:04,VALID,998.445,VALID,0,VALID,92.3413,VALID,0,VALID,22.9013,VALID,134,VALID,0.224609,
2011-03-16, 03:45:04,VALID,998.459,VALID,0,VALID,92.3566,VALID,0,VALID,22.9013,VALID,134,VALID,0.311719,
2011-03-16, 03:46:04,VALID,998.443,VALID,0,VALID,92.3337,VALID,0,VALID,22.9013,VALID,134,VALID,0.579687,
2011-03-16, 03:47:04,VALID,998.46,VALID,0,VALID,92.3413,VALID,0,VALID,22.9208,VALID,131,VALID,0.575,
2011-03-16, 03:48:04,VALID,998.455,VALID,0,VALID,92.3413,VALID,0,VALID,22.9208,VALID,131,VALID,0.252344,
2011-03-16, 03:49:04,VALID,998.474,VALID,0,VALID,92.3337,VALID,0,VALID,22.9403,VALID,131,VALID,0.112891,